Location: Unspecified
(0.0000°N, 0.0000°E)
Time: 11:21:33
(UTC+00:00)

Altair - Pass Details

Date: 28 November 2019
Orbit: 1502 x 1682 km, 47.2° (Epoch: 14 December)

Event Time Altitude Azimuth Distance (km) Brightness Sun altitude
Rises 10:46:41 0° 294° (WNW) 4,740 9.8 64.0°
Reaches altitude 10° 10:50:18 10° 283° (WNW) 3,785 9.5 64.5°
Maximum altitude 10:58:12 29° 228° (SW) 2,663 9.3 65.5°
Drops below altitude 10° 11:06:23 10° 172° (S) 3,903 10.1 66.4°
Sets 11:10:14 0° 161° (SSE) 4,911 10.5 66.8°
